When you browse on this site, cookies collect data to enhance your experience and personalize the content and advertising you see.
Visit our Privacy Policy to learn more. By continuing to use the site, you agree to this use of cookies and data.

Hourly Weather Rosas

Today, 15 July, Wednesday

Time Temperature Precipitation Wind Pressure Humidity
00:00 +16°C° 0.1 mm 1 mps 618 mmHg 87%
01:00 +15°C° 0.1 mm 1 mps 618 mmHg 87%
02:00 +15°C° 0 mm 1 mps 617 mmHg 86%
03:00 +15°C° 0 mm 1 mps 617 mmHg 86%
04:00 +15°C° 0 mm 1 mps 616 mmHg 86%
05:00 +15°C° 0 mm 1 mps 616 mmHg 85%
06:00 +16°C° 0 mm 1 mps 617 mmHg 84%
07:00 +16°C° 0 mm 1 mps 617 mmHg 84%
08:00 +19°C° 0 mm 1 mps 618 mmHg 77%
09:00 +21°C° 0 mm 1 mps 619 mmHg 71%
10:00 +22°C° 0 mm 1 mps 619 mmHg 65%
11:00 +23°C° 0.1 mm 1 mps 619 mmHg 61%
12:00 +25°C° 0.1 mm 1 mps 619 mmHg 56%
13:00 +26°C° 0.1 mm 1 mps 619 mmHg 52%
14:00 +25°C° 0.2 mm 1 mps 618 mmHg 55%
15:00 +25°C° 0.2 mm 1 mps 618 mmHg 59%
16:00 +24°C° 0.2 mm 1 mps 617 mmHg 63%
17:00 +22°C° 0.3 mm 1 mps 617 mmHg 70%
18:00 +20°C° 0.3 mm 1 mps 617 mmHg 78%
19:00 +17°C° 0.3 mm 2 mps 616 mmHg 85%
20:00 +17°C° 0.2 mm 2 mps 617 mmHg 85%
21:00 +16°C° 0.2 mm 2 mps 617 mmHg 84%
22:00 +16°C° 0.2 mm 1 mps 617 mmHg 84%
23:00 +16°C° 0.1 mm 1 mps 617 mmHg 83%

Tomorrow, 16 July, Thursday

Time Temperature Precipitation Wind Pressure Humidity
00:00 +16°C° 0.1 mm 1 mps 617 mmHg 83%
01:00 +16°C° 0.1 mm 1 mps 617 mmHg 83%
02:00 +16°C° 0 mm 1 mps 617 mmHg 83%
03:00 +16°C° 0 mm 1 mps 616 mmHg 84%
04:00 +15°C° 0 mm 1 mps 616 mmHg 84%
05:00 +16°C° 0 mm 1 mps 616 mmHg 83%
06:00 +16°C° 0 mm 1 mps 617 mmHg 83%
07:00 +16°C° 0 mm 1 mps 617 mmHg 83%
08:00 +19°C° 0 mm 1 mps 618 mmHg 75%
09:00 +21°C° 0 mm 1 mps 619 mmHg 68%
10:00 +23°C° 0 mm 1 mps 620 mmHg 61%
11:00 +24°C° 0.1 mm 1 mps 620 mmHg 58%
12:00 +25°C° 0.1 mm 1 mps 620 mmHg 55%
13:00 +26°C° 0.1 mm 1 mps 619 mmHg 52%
14:00 +25°C° 0.3 mm 1 mps 619 mmHg 57%
15:00 +24°C° 0.3 mm 1 mps 618 mmHg 62%
16:00 +24°C° 0.3 mm 1 mps 617 mmHg 67%
17:00 +22°C° 0.6 mm 1 mps 617 mmHg 75%
18:00 +20°C° 0.6 mm 1 mps 617 mmHg 82%
19:00 +17°C° 0.6 mm 2 mps 616 mmHg 90%
20:00 +16°C° 0.3 mm 2 mps 616 mmHg 88%
21:00 +15°C° 0.3 mm 1 mps 617 mmHg 86%
22:00 +15°C° 0.3 mm 1 mps 617 mmHg 85%
23:00 +15°C° 0 mm 1 mps 617 mmHg 83%

Day after tomorrow, 17 July, Friday

Time Temperature Precipitation Wind Pressure Humidity
00:00 +14°C° 0 mm 1 mps 617 mmHg 81%
01:00 +14°C° 0 mm 1 mps 616 mmHg 79%
02:00 +14°C° 0 mm 1 mps 616 mmHg 78%
03:00 +14°C° 0 mm 1 mps 616 mmHg 78%
04:00 +14°C° 0 mm 1 mps 615 mmHg 78%
05:00 +14°C° 0 mm 1 mps 616 mmHg 78%
06:00 +15°C° 0 mm 1 mps 616 mmHg 78%
07:00 +15°C° 0 mm 1 mps 617 mmHg 78%
08:00 +19°C° 0 mm 1 mps 618 mmHg 71%
09:00 +21°C° 0 mm 1 mps 619 mmHg 63%
10:00 +23°C° 0 mm 1 mps 620 mmHg 56%
11:00 +24°C° 0 mm 1 mps 620 mmHg 55%
12:00 +24°C° 0 mm 1 mps 619 mmHg 54%
13:00 +25°C° 0 mm 1 mps 619 mmHg 53%
14:00 +25°C° 0.1 mm 1 mps 618 mmHg 55%
15:00 +24°C° 0.1 mm 1 mps 618 mmHg 58%
16:00 +24°C° 0.1 mm 1 mps 617 mmHg 60%
17:00 +22°C° 0.3 mm 1 mps 617 mmHg 69%
18:00 +20°C° 0.3 mm 1 mps 617 mmHg 78%
19:00 +17°C° 0.3 mm 2 mps 616 mmHg 88%
20:00 +18°C° 0.2 mm 1 mps 617 mmHg 87%
21:00 +18°C° 0.2 mm 1 mps 617 mmHg 86%
22:00 +18°C° 0.2 mm 1 mps 617 mmHg 85%
23:00 +18°C° 0.1 mm 1 mps 617 mmHg 86%

18 July, Saturday

Time Temperature Precipitation Wind Pressure Humidity
00:00 +16°C° 0.1 mm 1 mps 617 mmHg 86%
01:00 +16°C° 0.1 mm 1 mps 617 mmHg 86%
02:00 +16°C° 0 mm 1 mps 616 mmHg 86%
03:00 +16°C° 0 mm 1 mps 616 mmHg 87%
04:00 +15°C° 0 mm 1 mps 616 mmHg 87%
05:00 +16°C° 0.1 mm 1 mps 616 mmHg 86%
06:00 +16°C° 0.1 mm 1 mps 616 mmHg 86%
07:00 +16°C° 0.1 mm 1 mps 617 mmHg 85%
08:00 +18°C° 0.1 mm 1 mps 617 mmHg 81%
09:00 +20°C° 0.1 mm 1 mps 618 mmHg 77%
10:00 +21°C° 0.1 mm 1 mps 619 mmHg 73%
11:00 +21°C° 0.2 mm 1 mps 618 mmHg 73%
12:00 +21°C° 0.2 mm 1 mps 618 mmHg 73%
13:00 +21°C° 0.2 mm 1 mps 618 mmHg 73%
14:00 +21°C° 0.1 mm 1 mps 617 mmHg 70%
15:00 +22°C° 0.1 mm 1 mps 617 mmHg 68%
16:00 +22°C° 0.1 mm 1 mps 617 mmHg 66%
17:00 +21°C° 0.1 mm 1 mps 616 mmHg 73%
18:00 +19°C° 0.1 mm 1 mps 616 mmHg 80%
19:00 +16°C° 0.1 mm 1 mps 616 mmHg 87%
20:00 +16°C° 0 mm 1 mps 616 mmHg 86%
21:00 +16°C° 0 mm 1 mps 617 mmHg 85%
22:00 +16°C° 0 mm 1 mps 617 mmHg 84%
23:00 +16°C° 0 mm 1 mps 617 mmHg 84%

19 July, Sunday

Time Temperature Precipitation Wind Pressure Humidity
00:00 +16°C° 0 mm 1 mps 617 mmHg 85%
01:00 +16°C° 0 mm 1 mps 617 mmHg 85%
02:00 +15°C° 0 mm 1 mps 616 mmHg 86%
03:00 +15°C° 0 mm 1 mps 616 mmHg 87%
04:00 +15°C° 0 mm 1 mps 616 mmHg 88%
05:00 +15°C° 0 mm 1 mps 616 mmHg 87%
06:00 +16°C° 0 mm 1 mps 616 mmHg 86%
07:00 +16°C° 0 mm 1 mps 617 mmHg 84%
08:00 +19°C° 0 mm 1 mps 618 mmHg 76%
09:00 +21°C° 0 mm 1 mps 619 mmHg 68%
10:00 +24°C° 0 mm 1 mps 620 mmHg 60%
11:00 +24°C° 0.3 mm 1 mps 620 mmHg 59%
12:00 +25°C° 0.3 mm 1 mps 619 mmHg 58%
13:00 +25°C° 0.3 mm 1 mps 619 mmHg 58%
14:00 +25°C° 0.6 mm 1 mps 618 mmHg 63%
15:00 +24°C° 0.6 mm 1 mps 618 mmHg 68%
16:00 +23°C° 0.6 mm 1 mps 617 mmHg 73%
17:00 +21°C° 0.7 mm 1 mps 616 mmHg 79%
18:00 +19°C° 0.7 mm 1 mps 616 mmHg 85%
19:00 +18°C° 0.7 mm 1 mps 616 mmHg 92%
20:00 +16°C° 0.3 mm 1 mps 616 mmHg 91%
21:00 +16°C° 0.3 mm 1 mps 617 mmHg 90%
22:00 +16°C° 0.3 mm 1 mps 617 mmHg 90%
23:00 +16°C° 0.1 mm 1 mps 617 mmHg 90%

20 July, Monday

Time Temperature Precipitation Wind Pressure Humidity
00:00 +16°C° 0.1 mm 1 mps 616 mmHg 90%
01:00 +16°C° 0.1 mm 1 mps 616 mmHg 90%
02:00 +15°C° 0 mm 1 mps 616 mmHg 90%
03:00 +15°C° 0 mm 1 mps 616 mmHg 90%
04:00 +15°C° 0 mm 1 mps 615 mmHg 90%
05:00 +15°C° 0 mm 1 mps 616 mmHg 89%
06:00 +15°C° 0 mm 1 mps 616 mmHg 88%
07:00 +16°C° 0 mm 1 mps 616 mmHg 87%
08:00 +19°C° 0 mm 1 mps 618 mmHg 79%
09:00 +21°C° 0 mm 1 mps 619 mmHg 71%
10:00 +23°C° 0 mm 1 mps 620 mmHg 63%
11:00 +23°C° 0.2 mm 1 mps 619 mmHg 63%
12:00 +24°C° 0.2 mm 1 mps 619 mmHg 63%
13:00 +24°C° 0.2 mm 1 mps 618 mmHg 63%
14:00 +24°C° 0.4 mm 1 mps 618 mmHg 66%
15:00 +23°C° 0.4 mm 1 mps 617 mmHg 69%
16:00 +23°C° 0.4 mm 1 mps 617 mmHg 71%
17:00 +21°C° 0.9 mm 1 mps 616 mmHg 78%
18:00 +20°C° 0.9 mm 1 mps 616 mmHg 85%
19:00 +18°C° 0.9 mm 1 mps 616 mmHg 92%
20:00 +18°C° 0.6 mm 1 mps 616 mmHg 91%
21:00 +16°C° 0.6 mm 1 mps 617 mmHg 91%
22:00 +16°C° 0.6 mm 1 mps 617 mmHg 90%
23:00 +16°C° 0.2 mm 1 mps 617 mmHg 90%
Show more